Terminal Aerodrome Forecast
Issued by NWS Portland, OR

Home | Current Version | Previous Version | Text Only | Print | Product List | Glossary On
Versions: 1 2 3 4 5 6 7 8 9 10 11 12 13 14 15 16 17 18 19 20 21 22 23 24 25 26 27 28 29 30 31 32 33 34 35 36 37 38 39 40 41 42 43 44 45 46 47 48 49 50
000
FTUS46 KPQR 301459 AAB
TAFPDX
TAF AMD
KPDX 301459Z 3015/3112 20012KT P6SM -SHRA SCT035 BKN060
      TEMPO 3015/3018 -RA BKN015 OVC035
     FM302000 20010KT P6SM VCSH SCT040
     FM310800 21008KT P6SM BKN080=

USA.gov is the U.S. government's official web portal to all federal, state and local government web resources and services.